Regional Weather Roundup
Issued by NWS

Home | Current Version | Previous Version | Graphics & Text | Print | Product List | Glossary On
Versions: 1 2 3 4 5 6 7 8 9 10 11 12 13 14 15 16 17 18 19 20 21 22 23 24 25 26 27 28 29 30 31 32 33 34 35 36 37 38 39 40 41 42 43 44 45 46 47 48 49 50
000
ASUS43 KLSX 250207
RWRMO

WEATHER SUMMARY FOR MISSOURI
NATIONAL WEATHER SERVICE SPRINGFIELD MO
900 PM CDT SUN MAY 24 2015

NOTE: "FAIR" INDICATES FEW OR NO CLOUDS BELOW 12,000 FEET WITH NO
       SIGNIFICANT WEATHER AND/OR OBSTRUCTIONS TO VISIBILITY.
       CURRENT SKY AND/OR WEATHER CONDITIONS ARE NOT AVAILABLE FOR
       CHILLICOTHE AND FARMINGTON.

MOZ001>031-035>038-043-044-053-054-250300-
...NORTHERN AND WESTERN MISSOURI...

CITY           SKY/WX    TMP DP  RH WIND       PRES   REMARKS
KANSAS CTY INT CLOUDY    63  62  97 S6        29.81S
KANSAS C DTWN  CLOUDY    66  62  87 S3        29.80S
LEE`S SUMMIT   CLOUDY    65  62  90 S6        29.83R
ST JOSEPH      CLOUDY    65  62  90 S5        29.80S
CHILLICOTHE      N/A     65  64  97 CALM      29.82F
KIRKSVILLE     CLOUDY    65  64  97 CALM      29.84F

$$
MOZ066>068-077>081-088>096-101>105-250300-
...SOUTHWEST MISSOURI...

CITY           SKY/WX    TMP DP  RH WIND       PRES   REMARKS
SPRINGFIELD    CLOUDY    63  61  93 S3        29.85S
JOPLIN         LGT RAIN  64  62  93 N7        29.85S FOG

$$
MOZ032>034-039>042-045>050-055>058-069>072-250300-
...CENTRAL MISSOURI...

CITY           SKY/WX    TMP DP  RH WIND       PRES   REMARKS
COLUMBIA       LGT RAIN  68  66  93 E5        29.85F
JEFFERSON CITY RAIN      68  67  96 E5        29.84F FOG
ROLLA          CLOUDY    69  66  90 S15G24    29.84F
SEDALIA        LGT RAIN  67  64  90 E3        29.85F
WHITEMAN AFB   LGT RAIN  65  65  99 SE3       29.83S
WARRENSBURG    DRIZZLE   64  63  94 CALM      29.83R
OSAGE BEACH    CLOUDY    66  64  94 E3        29.83F

$$
MOZ051-052-059>065-250300-
...EAST CENTRAL MISSOURI...

CITY           SKY/WX    TMP DP  RH WIND       PRES   REMARKS
ST LOUIS INTL  CLOUDY    79  65  62 S17       29.90S
SPIRIT OF STL  CLOUDY    73  69  87 SE5       29.88S
ST CHARLES     CLOUDY    76  67  73 S12       29.88S

$$
MOZ072>076-082>087-097>100-106>115-250300-
...SOUTH CENTRAL AND SOUTHEAST MISSOURI...

CITY           SKY/WX    TMP DP  RH WIND       PRES   REMARKS
CAPE GIRARDEAU RAIN      69  67  93 S20G30    29.99R FOG
FARMINGTON     CLOUDY    66  63  88 SW20G32   30.00R THUNDER
POPLAR BLUFF   LGT RAIN  69  66  90 SW9G18    29.95S
WEST PLAINS    CLOUDY    67  63  87 SE13      29.91R

$$



USA.gov is the U.S. government's official web portal to all federal, state and local government web resources and services.